Location: Asheville, NC
(35.6000°N, 82.5500°W)
Time: 07:01:25
(UTC-05:00)

Vanguard 1 - Pass Details

Date: 17 February 2018
Orbit: 650 x 3833 km, 34.2° (Epoch: 19 February)

Event Time Altitude Azimuth Distance (km) Brightness Sun altitude
Rises 15:12:19 0° 233° (SW) 6,549 15.4 31.1°
Reaches altitude 10° 15:17:32 10° 229° (SW) 5,015 15.3 30.4°
Maximum altitude 15:29:29 48° 161° (SSE) 1,881 12.1 28.6°
Drops below altitude 10° 15:36:10 10° 88° (E) 2,859 12.1 27.6°
Sets 15:38:21 0° 82° (E) 3,577 12.5 27.3°
